When you browse on this site, cookies collect data to enhance your experience and personalize the content and advertising you see.
Visit our Privacy Policy to learn more. By continuing to use the site, you agree to this use of cookies and data.
  • en Suisse
  • Liste des pays
  • À 7 jours
  • Température de l'eau
  • Carte satellitaire
  • Carte météo
  • Widgets météo
  • user-avatar
    Se connecter

    Météo par heure à Pleskachivka

    Ce jour, 22 Juillet, Lundi

    Heure Température Précipitation Vent Pression Humidité
    00:00 +19°C° 0 mm 2 m/s 748 mmHg 77%
    01:00 +19°C° 0 mm 1 m/s 748 mmHg 78%
    02:00 +19°C° 0 mm 1 m/s 748 mmHg 80%
    03:00 +18°C° 0 mm 1 m/s 748 mmHg 81%
    04:00 +19°C° 0 mm 1 m/s 748 mmHg 80%
    05:00 +19°C° 0 mm 1 m/s 748 mmHg 80%
    06:00 +19°C° 0 mm 1 m/s 748 mmHg 79%
    07:00 +21°C° 0 mm 1 m/s 748 mmHg 72%
    08:00 +23°C° 0 mm 1 m/s 748 mmHg 65%
    09:00 +25°C° 0 mm 1 m/s 748 mmHg 58%
    10:00 +26°C° 0 mm 1 m/s 748 mmHg 53%
    11:00 +27°C° 0 mm 1 m/s 748 mmHg 48%
    12:00 +28°C° 0 mm 2 m/s 748 mmHg 43%
    13:00 +29°C° 0 mm 1 m/s 747 mmHg 41%
    14:00 +29°C° 0 mm 1 m/s 747 mmHg 38%
    15:00 +30°C° 0 mm 1 m/s 747 mmHg 36%
    16:00 +30°C° 0 mm 1 m/s 747 mmHg 37%
    17:00 +30°C° 0 mm 1 m/s 746 mmHg 37%
    18:00 +29°C° 0 mm 1 m/s 746 mmHg 38%
    19:00 +27°C° 0 mm 1 m/s 746 mmHg 43%
    20:00 +25°C° 0 mm 1 m/s 746 mmHg 48%
    21:00 +23°C° 0 mm 2 m/s 745 mmHg 52%
    22:00 +23°C° 0 mm 2 m/s 745 mmHg 54%
    23:00 +21°C° 0 mm 2 m/s 745 mmHg 56%

    Demain, 23 Juillet, Mardi

    Heure Température Précipitation Vent Pression Humidité
    00:00 +20°C° 0 mm 3 m/s 745 mmHg 57%
    01:00 +20°C° 0 mm 3 m/s 745 mmHg 57%
    02:00 +20°C° 0 mm 3 m/s 745 mmHg 57%
    03:00 +19°C° 0 mm 3 m/s 744 mmHg 57%
    04:00 +19°C° 0 mm 3 m/s 744 mmHg 59%
    05:00 +20°C° 0 mm 2 m/s 744 mmHg 60%
    06:00 +20°C° 0 mm 2 m/s 744 mmHg 61%
    07:00 +22°C° 0 mm 3 m/s 744 mmHg 58%
    08:00 +25°C° 0 mm 3 m/s 743 mmHg 56%
    09:00 +27°C° 0 mm 3 m/s 743 mmHg 53%
    10:00 +27°C° 0 mm 4 m/s 743 mmHg 52%
    11:00 +28°C° 0 mm 4 m/s 743 mmHg 51%
    12:00 +29°C° 0 mm 4 m/s 743 mmHg 51%
    13:00 +28°C° 0.5 mm 4 m/s 743 mmHg 55%
    14:00 +27°C° 0.5 mm 4 m/s 742 mmHg 59%
    15:00 +26°C° 0.5 mm 4 m/s 742 mmHg 64%
    16:00 +24°C° 2.7 mm 3 m/s 742 mmHg 72%
    17:00 +21°C° 2.7 mm 3 m/s 742 mmHg 79%
    18:00 +19°C° 2.7 mm 2 m/s 743 mmHg 87%
    19:00 +19°C° 0.1 mm 2 m/s 743 mmHg 88%
    20:00 +19°C° 0.1 mm 2 m/s 743 mmHg 89%
    21:00 +20°C° 0.1 mm 1 m/s 743 mmHg 90%
    22:00 +20°C° 0.1 mm 1 m/s 743 mmHg 90%
    23:00 +20°C° 0.1 mm 1 m/s 743 mmHg 91%

    Après-demain, 24 Juillet, Mercredi

    Heure Température Précipitation Vent Pression Humidité
    00:00 +18°C° 0.1 mm 2 m/s 743 mmHg 92%
    01:00 +18°C° 0.1 mm 2 m/s 743 mmHg 92%
    02:00 +18°C° 0.1 mm 2 m/s 743 mmHg 93%
    03:00 +18°C° 0.1 mm 2 m/s 743 mmHg 94%
    04:00 +19°C° 0.3 mm 1 m/s 743 mmHg 94%
    05:00 +19°C° 0.3 mm 1 m/s 742 mmHg 94%
    06:00 +19°C° 0.3 mm 1 m/s 742 mmHg 94%
    07:00 +19°C° 1.9 mm 1 m/s 742 mmHg 94%
    08:00 +19°C° 1.9 mm 1 m/s 743 mmHg 95%
    09:00 +19°C° 1.9 mm 1 m/s 743 mmHg 95%
    10:00 +19°C° 0.8 mm 1 m/s 743 mmHg 93%
    11:00 +20°C° 0.8 mm 1 m/s 743 mmHg 90%
    12:00 +20°C° 0.8 mm 1 m/s 743 mmHg 87%
    13:00 +21°C° 0.2 mm 1 m/s 743 mmHg 85%
    14:00 +21°C° 0.2 mm 1 m/s 742 mmHg 84%
    15:00 +21°C° 0.2 mm 1 m/s 742 mmHg 82%
    16:00 +21°C° 0.3 mm 1 m/s 742 mmHg 82%
    17:00 +20°C° 0.3 mm 2 m/s 742 mmHg 81%
    18:00 +20°C° 0.3 mm 2 m/s 743 mmHg 81%
    19:00 +19°C° 0 mm 2 m/s 743 mmHg 85%
    20:00 +18°C° 0 mm 2 m/s 743 mmHg 89%
    21:00 +16°C° 0 mm 1 m/s 743 mmHg 94%
    22:00 +16°C° 0 mm 2 m/s 743 mmHg 94%
    23:00 +15°C° 0 mm 2 m/s 743 mmHg 94%

    25 Juillet, Jeudi

    Heure Température Précipitation Vent Pression Humidité
    00:00 +15°C° 0 mm 2 m/s 743 mmHg 95%
    01:00 +15°C° 0 mm 1 m/s 743 mmHg 95%
    02:00 +14°C° 0 mm 1 m/s 743 mmHg 95%
    03:00 +14°C° 0 mm 1 m/s 743 mmHg 95%
    04:00 +14°C° 0 mm 1 m/s 743 mmHg 95%
    05:00 +15°C° 0 mm 1 m/s 743 mmHg 95%
    06:00 +15°C° 0 mm 1 m/s 743 mmHg 95%
    07:00 +17°C° 0 mm 2 m/s 743 mmHg 89%
    08:00 +18°C° 0 mm 2 m/s 743 mmHg 84%
    09:00 +20°C° 0 mm 3 m/s 743 mmHg 79%
    10:00 +21°C° 0.1 mm 3 m/s 743 mmHg 75%
    11:00 +22°C° 0.1 mm 3 m/s 743 mmHg 71%
    12:00 +24°C° 0.1 mm 3 m/s 743 mmHg 67%
    13:00 +25°C° 0.4 mm 3 m/s 743 mmHg 66%
    14:00 +25°C° 0.4 mm 3 m/s 743 mmHg 65%
    15:00 +26°C° 0.4 mm 3 m/s 743 mmHg 64%
    16:00 +25°C° 0.2 mm 3 m/s 743 mmHg 66%
    17:00 +25°C° 0.2 mm 3 m/s 743 mmHg 68%
    18:00 +25°C° 0.2 mm 3 m/s 743 mmHg 70%
    19:00 +22°C° 0.4 mm 3 m/s 743 mmHg 77%
    20:00 +21°C° 0.4 mm 2 m/s 743 mmHg 84%
    21:00 +19°C° 0.4 mm 2 m/s 743 mmHg 91%
    22:00 +19°C° 0.3 mm 3 m/s 743 mmHg 93%
    23:00 +19°C° 0.3 mm 3 m/s 743 mmHg 94%

    26 Juillet, Vendredi

    Heure Température Précipitation Vent Pression Humidité
    00:00 +18°C° 0.3 mm 4 m/s 744 mmHg 96%
    01:00 +18°C° 0.7 mm 4 m/s 744 mmHg 95%
    02:00 +17°C° 0.7 mm 5 m/s 744 mmHg 95%
    03:00 +17°C° 0.7 mm 6 m/s 744 mmHg 94%
    04:00 +17°C° 0.7 mm 5 m/s 744 mmHg 95%
    05:00 +17°C° 0.7 mm 5 m/s 744 mmHg 95%
    06:00 +18°C° 0.7 mm 4 m/s 744 mmHg 96%
    07:00 +18°C° 2.5 mm 4 m/s 744 mmHg 96%
    08:00 +18°C° 2.5 mm 4 m/s 744 mmHg 96%
    09:00 +18°C° 2.5 mm 4 m/s 744 mmHg 96%
    10:00 +18°C° 2.4 mm 4 m/s 744 mmHg 95%
    11:00 +18°C° 2.4 mm 4 m/s 744 mmHg 94%
    12:00 +19°C° 2.4 mm 4 m/s 744 mmHg 94%
    13:00 +19°C° 0.5 mm 3 m/s 743 mmHg 93%
    14:00 +19°C° 0.5 mm 3 m/s 743 mmHg 92%
    15:00 +19°C° 0.5 mm 2 m/s 743 mmHg 92%
    16:00 +20°C° 0 mm 2 m/s 743 mmHg 90%
    17:00 +20°C° 0 mm 3 m/s 743 mmHg 88%
    18:00 +21°C° 0 mm 3 m/s 742 mmHg 86%
    19:00 +20°C° 0.4 mm 3 m/s 742 mmHg 88%
    20:00 +20°C° 0.4 mm 2 m/s 742 mmHg 89%
    21:00 +19°C° 0.4 mm 2 m/s 742 mmHg 91%
    22:00 +19°C° 0.3 mm 2 m/s 742 mmHg 91%
    23:00 +19°C° 0.3 mm 2 m/s 742 mmHg 91%

    27 Juillet, Samedi

    Heure Température Précipitation Vent Pression Humidité
    00:00 +19°C° 0.3 mm 2 m/s 742 mmHg 91%
    01:00 +18°C° 0 mm 2 m/s 742 mmHg 92%
    02:00 +18°C° 0 mm 3 m/s 742 mmHg 93%
    03:00 +18°C° 0 mm 3 m/s 742 mmHg 94%
    04:00 +17°C° 0.1 mm 3 m/s 741 mmHg 94%
    05:00 +17°C° 0.1 mm 3 m/s 741 mmHg 94%
    06:00 +17°C° 0.1 mm 3 m/s 741 mmHg 93%
    07:00 +19°C° 0 mm 4 m/s 741 mmHg 89%
    08:00 +20°C° 0 mm 4 m/s 741 mmHg 84%
    09:00 +21°C° 0 mm 4 m/s 741 mmHg 79%
    10:00 +23°C° 0.1 mm 4 m/s 741 mmHg 73%
    11:00 +25°C° 0.1 mm 5 m/s 741 mmHg 66%
    12:00 +26°C° 0.1 mm 5 m/s 741 mmHg 60%
    13:00 +26°C° 0.3 mm 5 m/s 741 mmHg 62%
    14:00 +25°C° 0.3 mm 5 m/s 740 mmHg 65%
    15:00 +25°C° 0.3 mm 5 m/s 740 mmHg 68%
    16:00 +25°C° 0.3 mm 5 m/s 740 mmHg 68%
    17:00 +23°C° 0.3 mm 5 m/s 740 mmHg 67%
    18:00 +23°C° 0.3 mm 5 m/s 740 mmHg 67%
    19:00 +22°C° 0 mm 4 m/s 740 mmHg 72%
    20:00 +20°C° 0 mm 3 m/s 740 mmHg 77%
    21:00 +18°C° 0 mm 3 m/s 740 mmHg 82%
    22:00 +18°C° 0 mm 3 m/s 740 mmHg 83%
    23:00 +17°C° 0 mm 3 m/s 740 mmHg 84%
    Voir plus